STARLINK-30396, 57964

Orbit data source: Space-Track

STARLINK-30396, 57964 is a payload satellite owned by SpaceX/Seattle (US) in LEO that was launched on Sat, 30 Sep 2023 UTC via an FALCON 9 launch vehicle from the Air Force Eastern Test Range (AFETR). Payload-class satellites include a variety of spacecraft equipped with specific instruments for various scientific and technological missions. These include communications satellites like Starlink; space stations such as the ISS; scientific satellites like the Hubble; Earth observation satellites from companies like Planet Labs, Umbra, and HawkEye 360; GPS; miniature CubeSats for education and research; and military/defense satellites.

Loading next visibility...
Identifier
57964, 2023-151A
Orbit
LEO
Country
Flag of USUS
Related business
Manufacturer
SpaceX/Seattle
Mission
Operational Commercial Communications
Bus & Motor
STARLINK V2M, Unknown motor
Mass
730 kg wet, ~700 kg dry
Launch date (UTC)
2023-09-30 (3 years ago)
Launch vehicle
FALCON 9
Launch site
Air Force Eastern Test Range (AFETR)
Object type
Payload
Rocket body
Debris
Shape & HBR
Box + 2 Pan, 17.7 m
Radar Cross Section
33.884 m², Large (>1 m²)

Expand to show TLE details & history
Last TLE update: 14 hours ago

TLE from 14 hours ago
0 STARLINK-30396
1 57964U 23151A   26129.89636012 -.00001094  00000-0 -30228-4 0  9993
2 57964  43.0033 350.6505 0001048 271.5440  88.5292 15.27573280145123
Epoch: 2026-05-09T21:30Z
TLE epoch observation values (Epoch: 2026-05-09T21:30:45.514Z)
Latitude
0.00001°
Longitude
160.25365°
Altitude
482.827 km
Speed
7.626 km/s
True Right ascension
23h 22m 36s
True Declination
0° 00' 00"
Sunlit
Object was in daylight at epoch
Visualization orbit readout
Latitude
Unknown
Longitude
Unknown
Altitude
Unknown
Speed
Unknown
Apparent Right ascension
Unknown
Apparent Declination
Unknown
Sunlit
N/A
Visualization observer readout
Local Sidereal Time
19:53:01
Azimuth
Unknown
Elevation
Unknown
Doppler factor
Unknown
Orbital elements
Apogee altitude
485.733 km
Perigee altitude
484.295 km
Semi-major axis
6,863.151 km
Eccentricity
0.0001
Inclination
43.0033°
RAAN
350.6505°
Arg. of periapsis
271.544°
True anomaly
88.54121°
Mean anomaly
88.5292°
Eccentric anomaly
88.5352°
Mean motion
3.81731 °/min
Orbital period
94.31 mins
BSTAR
-0.000030228
Loading maneuver chart data...
Computing Atmospheric mass density...
Loading historical data...
Loading historical data...
Loading historical data...
Loading historical data...
Loading historical data...
Loading historical data...
Loading historical data...

Documentation

Showing up to 5 results
|